Weather History for The Dalles, OR

Change the Weather History Date:

Sunday, December 8, 2013

  Actual Average Record
Temperature  
Mean Temperature 7 °F -  
Max Temperature 16 °F 42 °F 58 °F (1989)
Min Temperature -2 °F 29 °F -9 °F (1972)
Degree Days  
Heating Degree Days 58    
Moisture  
Dew Point -1 °F    
Average Humidity 80    
Maximum Humidity 91    
Minimum Humidity 57    
Precipitation  
Precipitation 0.00 in - - ()
Sea Level Pressure  
Sea Level Pressure 30.58 in    
Wind  
Wind Speed 2 mph (East)    
Max Wind Speed 6 mph    
Max Gust Speed -    
Visibility 8 miles    
Events Fog    
Averages and records for this station are not official NWS values.
T = Trace of Precipitation, MM = Missing Value Source: NWS Daily Summary

Daily Weather History Graph

Daily Weather History Graph

Search for Another Location

Airport:

Trip Planner

Search our weather history database for the weather conditions in past years. The results will help you decide how hot, cold, wet, or windy it might be!

Date:

Astronomy

Dec. 08, 2013 Rise Set
Actual Time 7:32 AM PST 4:20 PM PST
Civil Twilight 6:58 AM PST 4:54 PM PST
Nautical Twilight 6:21 AM PST 5:32 PM PST
Astronomical Twilight 5:45 AM PST 6:08 PM PST
Moon 11:41 AM PST (12/8) 11:32 PM PST (12/8)
Length of Visible Light 9h 56m
Length of Day
8h 48m
Waxing Crescent, 41% of the Moon is Illuminated
Dec 8
Waxing Crescent
Dec 9
First Quarter
Dec 17
Full
Dec 25
Last Quarter
Jan 1
New

Hourly Weather History & Observations

Time (PST) Temp. Windchill Dew Point Humidity Pressure Visibility Wind Dir Wind Speed Gust Speed Precip Events Conditions
12:43 AM -0.9 °F -11.0 °F -6.0 °F 79% 30.52 in 10.0 mi East 4.6 mph - N/A   Partly Cloudy
12:53 AM -0.9 °F -8.9 °F -6.0 °F 79% 30.54 in 10.0 mi ESE 3.5 mph - N/A   Clear
1:53 AM -0.0 °F -11.6 °F -4.0 °F 83% 30.55 in 10.0 mi ESE 5.8 mph - N/A   Clear
2:53 AM -0.9 °F -12.7 °F -5.1 °F 83% 30.56 in 10.0 mi ESE 5.8 mph - N/A   Clear
3:53 AM -2.0 °F - -7.1 °F 79% 30.55 in 10.0 mi Calm Calm - N/A   Clear
4:01 AM -2.0 °F - -7.1 °F 79% 30.53 in 10.0 mi Calm Calm - N/A   Scattered Clouds
4:12 AM -2.0 °F - -6.0 °F 83% 30.53 in 10.0 mi Calm Calm - N/A   Mostly Cloudy
4:53 AM -0.9 °F - -5.1 °F 83% 30.56 in 4.0 mi Calm Calm - N/A   Overcast
4:57 AM -0.9 °F - -2.9 °F 91% 30.53 in 0.8 mi Calm Calm - N/A   Overcast
5:29 AM -0.9 °F - -2.9 °F 91% 30.54 in 1.2 mi Calm Calm - N/A   Overcast
5:37 AM -0.0 °F - -2.9 °F 88% 30.54 in 0.2 mi Calm Calm - N/A Fog Light Freezing Fog
5:53 AM -0.9 °F - -5.1 °F 83% 30.56 in 0.2 mi Calm Calm - N/A Fog Light Freezing Fog
6:16 AM -0.0 °F - -4.0 °F 83% 30.55 in 1.2 mi Calm Calm - N/A   Scattered Clouds
6:21 AM -0.9 °F - -5.1 °F 83% 30.55 in 0.8 mi Calm Calm - N/A   Mist
6:45 AM -0.9 °F - -5.1 °F 83% 30.54 in 2.0 mi Calm Calm - N/A   Overcast
6:53 AM -0.9 °F - -5.1 °F 83% 30.56 in 10.0 mi Calm Calm - N/A   Overcast
7:12 AM 1.0 °F - -5.1 °F 75% 30.55 in 10.0 mi Calm Calm - N/A   Scattered Clouds
7:53 AM 3.0 °F - -0.9 °F 84% 30.58 in 10.0 mi Calm Calm - N/A   Partly Cloudy
8:10 AM 3.9 °F - -0.0 °F 84% 30.56 in 10.0 mi Calm Calm - N/A   Mostly Cloudy
8:53 AM 5.0 °F - 1.9 °F 87% 30.59 in 8.0 mi Calm Calm - N/A   Overcast
9:53 AM 8.1 °F - 5.0 °F 87% 30.59 in 10.0 mi Calm Calm - N/A   Overcast
10:53 AM 10.0 °F - 7.0 °F 87% 30.57 in 10.0 mi Calm Calm - N/A   Overcast
11:53 AM 10.9 °F - 6.1 °F 81% 30.56 in 10.0 mi Calm Calm - N/A   Clear
12:53 PM 12.0 °F - 3.0 °F 67% 30.56 in 10.0 mi Calm Calm - N/A   Clear
1:53 PM 14.0 °F - 1.9 °F 59% 30.57 in 10.0 mi Calm Calm - N/A   Clear
2:53 PM 16.0 °F 10.4 °F 3.0 °F 57% 30.58 in 10.0 mi NNE 3.5 mph - N/A   Clear
3:53 PM 14.0 °F 8.2 °F 3.0 °F 62% 30.60 in 10.0 mi NNE 3.5 mph - N/A   Clear
4:53 PM 10.0 °F - 1.9 °F 70% 30.61 in 10.0 mi Calm Calm - N/A   Clear
5:53 PM 9.0 °F - -0.0 °F 67% 30.63 in 10.0 mi Calm Calm - N/A   Clear
6:53 PM 8.1 °F - 1.9 °F 76% 30.64 in 10.0 mi Calm Calm - N/A   Clear
7:53 PM 9.0 °F - 3.0 °F 77% 30.65 in 10.0 mi Calm Calm - N/A   Clear
8:53 PM 5.0 °F -2.1 °F 1.0 °F 84% 30.66 in 10.0 mi East 3.5 mph - N/A   Clear
9:53 PM 5.0 °F -5.6 °F -0.0 °F 80% 30.68 in 10.0 mi ESE 5.8 mph - N/A   Clear
10:53 PM 3.9 °F - -0.0 °F 84% 30.69 in 10.0 mi Calm Calm - N/A   Clear
11:53 PM 5.0 °F -4.1 °F 1.0 °F 84% 30.69 in 10.0 mi SE 4.6 mph - N/A   Clear